Location: Hengforden
(52.3167°N, 6.1333°E)
Time: 15:26:04
(UTC+00:00)

SL-16 R/B - Pass Details

Date: 14 June 2025
Orbit: 840 x 847 km, 71.0° (Epoch: 19 July)

Event Time Altitude Azimuth Distance (km) Brightness Sun altitude
Rises 21:28:51 0° 327° (NNW) 3,409 7.7 -9.4°
Reaches altitude 10° 21:31:19 10° 325° (NW) 2,471 6.3 -9.6°
Maximum altitude 21:36:55 66° 245° (WSW) 923 2.4 -10.0°
Enters shadow 21:41:58 13° 165° (SSE) 2,261 3.8 -10.4°
